Marianna, FL

3:09 AM CDT on April 27, 2018 (GMT -0500)
Marianna Municipal

Weather History for KMAI - January, 2014

Change the Weather History Date:

Friday, January 3, 2014

  Actual Average Record
Temperature  
Mean Temperature 36 °F 50 °F  
Max Temperature 44 °F 61 °F 78 °F (2000)
Min Temperature 27 °F 38 °F 21 °F (2001)
Degree Days  
Heating Degree Days 29    
Month to date heating degree days 62  
Since 1 July heating degree days 625  
Cooling Degree Days 0    
Month to date cooling degree days 0  
Year to date cooling degree days 0  
Moisture  
Dew Point 19 °F    
Average Humidity 57    
Maximum Humidity 78    
Minimum Humidity 36    
Precipitation  
Precipitation 0.00 in 0.17 in 0.93 in (2009)
Month to date precipitation 0.38 0.52  
Year to date precipitation 0.38 0.52  
Sea Level Pressure  
Sea Level Pressure 30.33 in    
Wind  
Wind Speed 10 mph (NNE)    
Max Wind Speed 21 mph    
Max Gust Speed 26 mph    
Visibility 10 miles    
Events      
T = Trace of Precipitation, MM = Missing Value Source: NWS Daily Summary

Daily Weather History Graph

Daily Weather History Graph

Search for Another Location

Airport or City:

Astronomy

Jan. 03, 2014 Rise Set
Actual Time 6:39 AM CST 4:51 PM CST
Civil Twilight 6:12 AM CST 5:18 PM CST
Nautical Twilight 5:42 AM CST 5:48 PM CST
Astronomical Twilight 5:13 AM CST 6:17 PM CST
Moon 8:15 AM CST (1/3) 7:46 PM CST (1/3)
Length of Visible Light 11h 05m
Length of Day
10h 12m
Waxing Crescent, 8% of the Moon is Illuminated
Jan 3
Waxing Crescent
Jan 7
First Quarter
Jan 15
Full
Jan 23
Last Quarter
Jan 30
New

Hourly Weather History & Observations

Time (CST) Temp. Windchill Dew Point Humidity Pressure Visibility Wind Dir Wind Speed Gust Speed Precip Events Conditions
12:53 AM 34.0 °F 23.4 °F 26.1 °F 73% 30.22 in 10.0 mi NNW 17.3 mph 25.3 mph N/A   Clear
1:53 AM 33.1 °F 24.4 °F 24.1 °F 70% 30.25 in 10.0 mi NNW 11.5 mph - N/A   Clear
2:53 AM 32.0 °F 19.5 °F 19.0 °F 59% 30.26 in 10.0 mi North 21.9 mph 26.5 mph N/A   Clear
3:53 AM 30.0 °F 20.0 °F 19.9 °F 66% 30.27 in 10.0 mi NNW 12.7 mph - N/A   Clear
4:53 AM 28.9 °F 18.6 °F 19.0 °F 67% 30.30 in 10.0 mi NNW 12.7 mph - N/A   Clear
5:53 AM 28.9 °F 17.7 °F 15.1 °F 56% 30.32 in 10.0 mi North 15.0 mph - N/A   Clear
6:53 AM 28.0 °F 17.5 °F 15.1 °F 58% 30.36 in 10.0 mi North 12.7 mph 18.4 mph N/A   Clear
7:53 AM 28.9 °F 17.3 °F 15.1 °F 56% 30.38 in 10.0 mi North 16.1 mph 24.2 mph N/A   Clear
8:53 AM 32.0 °F 21.2 °F 16.0 °F 52% 30.40 in 10.0 mi North 16.1 mph 21.9 mph N/A   Clear
9:53 AM 33.1 °F 22.2 °F 16.0 °F 50% 30.40 in 10.0 mi NNE 17.3 mph - N/A   Clear
10:53 AM 36.0 °F 27.5 °F 16.0 °F 44% 30.37 in 10.0 mi NNE 12.7 mph 20.7 mph N/A   Clear
11:53 AM 39.0 °F 30.6 °F 16.0 °F 39% 30.34 in 10.0 mi NNE 15.0 mph 24.2 mph N/A   Clear
12:53 PM 41.0 °F 33.5 °F 17.1 °F 38% 30.31 in 10.0 mi NNE 13.8 mph 21.9 mph N/A   Clear
1:53 PM 42.1 °F 34.9 °F 17.1 °F 37% 30.31 in 10.0 mi NNE 13.8 mph 19.6 mph N/A   Clear
2:53 PM 43.0 °F 38.2 °F 17.1 °F 35% 30.30 in 10.0 mi NNE 8.1 mph - N/A   Clear
3:53 PM 42.1 °F 35.2 °F 17.1 °F 37% 30.31 in 10.0 mi NE 12.7 mph - N/A   Clear
4:53 PM 37.9 °F 32.1 °F 19.9 °F 48% 30.32 in 10.0 mi NE 8.1 mph - N/A   Clear
5:53 PM 35.1 °F 32.2 °F 21.0 °F 57% 30.34 in 10.0 mi ENE 3.5 mph - N/A   Clear
6:53 PM 34.0 °F - 23.0 °F 64% 30.36 in 10.0 mi Calm Calm - N/A   Clear
7:53 PM 33.1 °F 30.0 °F 21.0 °F 61% 30.37 in 10.0 mi ENE 3.5 mph - N/A   Clear
8:53 PM 32.0 °F - 21.0 °F 64% 30.38 in 10.0 mi Calm Calm - N/A   Clear
9:53 PM 28.9 °F - 23.0 °F 78% 30.38 in 10.0 mi Calm Calm - N/A   Clear
10:53 PM 28.0 °F 24.2 °F 23.0 °F 81% 30.38 in 10.0 mi NE 3.5 mph - N/A   Clear
11:53 PM 28.0 °F 24.2 °F 24.1 °F 85% 30.35 in 10.0 mi ENE 3.5 mph - N/A   Clear